Location: Pl�tzky
(52.0521°N, 11.8020°E)
Time: 11:27:23
(UTC+00:00)

USA 229 - Pass Details

Date: 22 February 2020
Orbit: 986 x 1226 km, 63.4° (Epoch: 26 March)

Event Time Altitude Azimuth Distance (km) Brightness Sun altitude
Rises 22:55:30 0° 303° (WNW) 3,860 7.0 -47.6°
Reaches altitude 10° 22:58:18 10° 311° (NW) 2,939 6.4 -47.7°
Enters shadow 22:59:42 16° 317° (NW) 2,514 6.0 -47.7°
